Change the Weather History Date:

Monday, March 17, 2014

  Actual Average Record
Temperature  
Mean Temperature 54 °F -  
Max Temperature 60 °F 56 °F 68 °F (2001)
Min Temperature 46 °F 42 °F 33 °F (2007)
Degree Days  
Heating Degree Days 12    
Growing Degree Days 4 (Base 50)    
Moisture  
Dew Point 47 °F    
Average Humidity 80    
Maximum Humidity 93    
Minimum Humidity 52    
Precipitation  
Precipitation 0.00 in - - ()
Sea Level Pressure  
Sea Level Pressure 29.96 in    
Wind  
Wind Speed 6 mph ()    
Max Wind Speed 12 mph    
Max Gust Speed -    
Visibility 5.4 miles    
Events      
Averages and records for this station are not official NWS values.
T = Trace of Precipitation, MM = Missing Value Source: Averaged Metar Reports

Daily Weather History Graph

Daily Weather History Graph

Search for Another Location

Airport or City:

Trip Planner

Search our weather history database for the weather conditions in past years. The results will help you decide how hot, cold, wet, or windy it might be!

Date:

Astronomy

Mar. 17, 2014 Rise Set
Actual Time 6:13 AM EET 6:13 PM EET
Civil Twilight 5:46 AM EET 6:40 PM EET
Nautical Twilight 5:14 AM EET 7:12 PM EET
Astronomical Twilight 4:41 AM EET 7:45 PM EET
Moon 7:11 PM EET (3/17) 6:18 AM EET (3/17)
Length of Visible Light 12h 54m
Length of Day
11h 59m
Full, 100% of the Moon is Illuminated
Mar 17
Full
Mar 24
Last Quarter
Mar 30
New
Apr 7
First Quarter
Apr 15
Full

Hourly Weather History & Observations

Time (EET) Temp. Dew Point Humidity Pressure Visibility Wind Dir Wind Speed Gust Speed Precip Events Conditions
12:20 AM 48.2 °F 46.4 °F 93% 29.83 in - SSW 10.4 mph - N/A   Clear
12:50 AM 48.2 °F 46.4 °F 93% 29.83 in 6.2 mi SSW 10.4 mph - N/A   Partly Cloudy
1:20 AM 48.2 °F 46.4 °F 93% 29.83 in 4.3 mi SW 11.5 mph - N/A   Partly Cloudy
1:50 AM 48.2 °F 46.4 °F 93% 29.83 in 3.7 mi SSW 11.5 mph - N/A   Unknown
2:00 AM 49 °F 47 °F 88% 29.85 in 4 mi SSW 11.5 mph - -   Mist
2:20 AM 48.2 °F 46.4 °F 93% 29.83 in 4.3 mi SW 9.2 mph - N/A   Unknown
2:50 AM 48.2 °F 46.4 °F 93% 29.83 in - WSW 8.1 mph - N/A   Clear
3:20 AM 50.0 °F 46.4 °F 87% 29.83 in 3.7 mi WSW 11.5 mph - N/A   Unknown
3:50 AM 50.0 °F 46.4 °F 87% 29.83 in 3.7 mi WSW 9.2 mph - N/A   Unknown
4:20 AM 48.2 °F 46.4 °F 93% 29.83 in 3.7 mi WSW 4.6 mph - N/A   Unknown
4:50 AM 48.2 °F 46.4 °F 93% 29.86 in 3.7 mi Calm Calm - N/A   Unknown
5:00 AM 49 °F 46 °F 85% 29.86 in 4 mi Calm Calm - -   Mist
5:20 AM 50.0 °F 46.4 °F 87% 29.86 in 4.3 mi SSW 5.8 mph - N/A   Unknown
5:50 AM 48.2 °F 46.4 °F 93% 29.86 in 4.3 mi SW 5.8 mph - N/A   Unknown
6:20 AM 50.0 °F 46.4 °F 87% 29.89 in 3.7 mi SSW 10.4 mph - N/A   Scattered Clouds
6:50 AM 50.0 °F 46.4 °F 87% 29.89 in 6.2 mi SW 8.1 mph - N/A   Scattered Clouds
7:20 AM 50.0 °F 46.4 °F 87% 29.92 in 6.2 mi West 3.5 mph - N/A   Scattered Clouds
7:50 AM 50.0 °F 46.4 °F 87% 29.92 in 6.2 mi WSW 5.8 mph - N/A   Mostly Cloudy
8:00 AM 50 °F 46 °F 81% 29.93 in 6 mi WSW 5.8 mph - -   Partly Cloudy
8:20 AM 50.0 °F 46.4 °F 87% 29.92 in 6.2 mi WSW 9.2 mph - N/A   Mostly Cloudy
8:50 AM 50.0 °F 46.4 °F 87% 29.95 in 6.2 mi WSW 6.9 mph - N/A   Mostly Cloudy
9:20 AM 51.8 °F 46.4 °F 82% 29.95 in 6.2 mi WSW 5.8 mph - N/A   Scattered Clouds
9:50 AM 51.8 °F 46.4 °F 82% 29.98 in 6.2 mi SW 4.6 mph - N/A   Scattered Clouds
10:20 AM 55.4 °F 48.2 °F 77% 29.98 in 6.2 mi SW 5.8 mph - N/A   Scattered Clouds
10:50 AM 55.4 °F 48.2 °F 77% 29.98 in 6.2 mi SW 6.9 mph - N/A   Scattered Clouds
11:00 AM 55 °F 48 °F 69% 30.00 in 6 mi SW 6.9 mph - -   Scattered Clouds
11:20 AM 53.6 °F 48.2 °F 82% 29.98 in 6.2 mi SW 6.9 mph - N/A   Scattered Clouds
11:50 AM 57.2 °F 48.2 °F 72% 30.01 in 6.2 mi SSW 8.1 mph - N/A   Scattered Clouds
12:20 PM 57.2 °F 48.2 °F 72% 30.01 in 6.2 mi SSW 8.1 mph - N/A   Partly Cloudy
12:50 PM 57.2 °F 48.2 °F 72% 30.01 in 6.2 mi SW 9.2 mph - N/A   Partly Cloudy
1:20 PM 57.2 °F 48.2 °F 72% 30.01 in 6.2 mi SSW 6.9 mph - N/A   Partly Cloudy
1:50 PM 57.2 °F 48.2 °F 72% 30.01 in 6.2 mi SW 8.1 mph - N/A   Partly Cloudy
2:00 PM 57 °F 47 °F 60% 30.01 in 6 mi SW 8.1 mph - -   Scattered Clouds
2:20 PM 57.2 °F 48.2 °F 72% 30.01 in 6.2 mi SW 9.2 mph - N/A   Partly Cloudy
2:50 PM 59.0 °F 46.4 °F 63% 30.01 in - SW 8.1 mph - N/A   Clear
3:20 PM 57.2 °F 46.4 °F 67% 30.01 in - SW 8.1 mph - N/A   Clear
3:50 PM 59.0 °F 46.4 °F 63% 30.01 in - WSW 5.8 mph - N/A   Clear
4:20 PM 59.0 °F 46.4 °F 63% 30.01 in - SW 3.5 mph - N/A   Clear
4:50 PM 59.0 °F 46.4 °F 63% 30.01 in - SW 3.5 mph - N/A   Clear
5:00 PM 59 °F 46 °F 52% 30.01 in 6 mi SW 3.5 mph - -  
5:20 PM 57.2 °F 46.4 °F 67% 30.01 in - WSW 3.5 mph - N/A   Clear
5:50 PM 55.4 °F 46.4 °F 72% 30.01 in - WSW 3.5 mph - N/A   Clear
6:20 PM 55.4 °F 46.4 °F 72% 30.01 in - Variable 2.3 mph - N/A   Clear
6:50 PM 55.4 °F 46.4 °F 72% 30.01 in - West 3.5 mph - N/A   Clear
7:20 PM 53.6 °F 44.6 °F 72% 30.01 in - Variable 2.3 mph - N/A   Clear
7:50 PM 53.6 °F 44.6 °F 72% 30.01 in - Variable 2.3 mph - N/A   Clear
8:00 PM 54 °F 44 °F 58% 30.03 in 6 mi SSW 2.3 mph - -  
8:20 PM 53.6 °F 44.6 °F 72% 30.04 in - Calm Calm - N/A   Clear
8:50 PM 51.8 °F 46.4 °F 82% 30.04 in - SSE 3.5 mph - N/A   Clear
9:20 PM 50.0 °F 46.4 °F 87% 30.04 in - Variable 1.2 mph - N/A   Clear
9:50 PM 50.0 °F 46.4 °F 87% 30.04 in - Calm Calm - N/A   Clear
10:20 PM 51.8 °F 46.4 °F 82% 30.04 in - Calm Calm - N/A   Clear
10:50 PM 50.0 °F 46.4 °F 87% 30.04 in - SSE 4.6 mph - N/A   Clear
11:00 PM 49 °F 46 °F 84% 30.05 in 6 mi SSE 4.6 mph - -  
11:20 PM 48.2 °F 46.4 °F 93% 30.04 in - Calm Calm - N/A   Clear
11:50 PM 46.4 °F 44.6 °F 93% 30.04 in - Variable 2.3 mph - N/A   Clear